Marshfield, WI

6:46 AM CST on February 23, 2018 (GMT -0600)
Marshfield Municipal

Weather History for KMFI - April, 2014

Change the Weather History Date:

Monday, April 28, 2014

  Actual Average Record
Temperature  
Mean Temperature 42 °F -  
Max Temperature 46 °F 63 °F 86 °F (1952)
Min Temperature 39 °F 37 °F 24 °F (1950)
Degree Days  
Heating Degree Days 22    
Moisture  
Dew Point 34 °F    
Average Humidity 73    
Maximum Humidity 86    
Minimum Humidity 56    
Precipitation  
Precipitation 0.20 in - - ()
Sea Level Pressure  
Sea Level Pressure 29.79 in    
Wind  
Wind Speed 22 mph (East)    
Max Wind Speed 28 mph    
Max Gust Speed 40 mph    
Visibility 8 miles    
Events Rain    
Averages and records for this station are not official NWS values.
T = Trace of Precipitation, MM = Missing Value Source: NWS Daily Summary

Daily Weather History Graph

Daily Weather History Graph

Search for Another Location

Airport or City:

Trip Planner

Search our weather history database for the weather conditions in past years. The results will help you decide how hot, cold, wet, or windy it might be!

Date:

Astronomy

Apr. 28, 2014 Rise Set
Actual Time 5:55 AM CDT 8:01 PM CDT
Civil Twilight 5:23 AM CDT 8:33 PM CDT
Nautical Twilight 4:44 AM CDT 9:13 PM CDT
Astronomical Twilight 4:01 AM CDT 9:56 PM CDT
Moon 5:36 AM CDT (4/28) 7:38 PM CDT (4/28)
Length of Visible Light 15h 10m
Length of Day
14h 06m
Waning Crescent, 0% of the Moon is Illuminated
Apr 28
Waning Crescent
Apr 29
New
May 6
First Quarter
May 14
Full
May 21
Last Quarter

Hourly Weather History & Observations

Time (CDT) Temp. Windchill Dew Point Humidity Pressure Visibility Wind Dir Wind Speed Gust Speed Precip Events Conditions
12:54 AM 41.0 °F 31.4 °F 32.0 °F 70% 29.89 in 10.0 mi East 21.9 mph 38.0 mph 0.00 in   Overcast
1:54 AM 41.0 °F 31.9 °F 32.0 °F 70% 29.89 in 10.0 mi East 19.6 mph 28.8 mph 0.00 in   Overcast
3:54 AM 39.0 °F 29.0 °F 35.1 °F 86% 29.87 in 9.0 mi East 20.7 mph 31.1 mph 0.03 in Rain Light Rain
4:54 AM 39.9 °F 29.7 °F 34.0 °F 79% 29.85 in 10.0 mi East 23.0 mph 31.1 mph 0.01 in   Overcast
5:54 AM 39.9 °F 30.2 °F 32.0 °F 73% 29.84 in 9.0 mi East 20.7 mph 32.2 mph 0.00 in Rain Light Rain
6:54 AM 41.0 °F 30.7 °F 30.9 °F 67% 29.83 in 10.0 mi East 25.3 mph 33.4 mph 0.00 in   Overcast
7:54 AM 42.1 °F 31.9 °F 30.9 °F 65% 29.81 in 10.0 mi East 26.5 mph 35.7 mph 0.00 in   Overcast
8:54 AM 43.0 °F 32.9 °F 30.0 °F 60% 29.81 in 10.0 mi East 27.6 mph 38.0 mph N/A   Overcast
9:54 AM 44.1 °F 35.0 °F 30.0 °F 58% 29.79 in 10.0 mi East 24.2 mph 40.3 mph N/A   Overcast
10:54 AM 45.0 °F 35.8 °F 30.0 °F 56% 29.77 in 10.0 mi East 26.5 mph 36.8 mph N/A   Overcast
11:54 AM 46.0 °F 38.3 °F 30.9 °F 56% 29.78 in 10.0 mi East 20.7 mph 29.9 mph 0.00 in Rain Light Rain
12:54 PM 45.0 °F 36.9 °F 33.1 °F 63% 29.80 in 10.0 mi ESE 20.7 mph 32.2 mph 0.00 in Rain Light Rain
1:54 PM 44.1 °F 35.7 °F 35.1 °F 71% 29.79 in 4.0 mi East 20.7 mph 28.8 mph 0.00 in Rain Light Rain
2:54 PM 42.1 °F 32.6 °F 35.1 °F 76% 29.77 in 4.0 mi East 23.0 mph 29.9 mph 0.04 in Rain Light Rain
3:47 PM 42.1 °F 32.8 °F 36.0 °F 79% 29.74 in 2.5 mi East 21.9 mph 31.1 mph 0.05 in Rain Rain
4:10 PM 42.1 °F 33.9 °F 37.0 °F 82% 29.74 in 3.0 mi East 17.3 mph 24.2 mph 0.04 in Rain Rain
4:46 PM 42.1 °F 34.2 °F 37.0 °F 82% 29.75 in 2.5 mi East 16.1 mph 24.2 mph 0.09 in Rain Rain
4:54 PM 42.1 °F 32.8 °F 37.0 °F 82% 29.78 in 2.5 mi East 21.9 mph 28.8 mph 0.11 in Rain Rain
5:13 PM 42.1 °F 33.3 °F 37.0 °F 82% 29.75 in 5.0 mi East 19.6 mph 26.5 mph 0.01 in Rain Light Rain
5:54 PM 42.1 °F 33.6 °F 37.0 °F 82% 29.77 in 10.0 mi East 18.4 mph 27.6 mph 0.01 in Rain Light Rain
6:54 PM 42.1 °F 33.3 °F 36.0 °F 79% 29.77 in 10.0 mi East 19.6 mph 27.6 mph 0.00 in   Overcast
7:54 PM 42.1 °F 32.3 °F 33.1 °F 70% 29.76 in 10.0 mi East 24.2 mph 33.4 mph N/A   Overcast
8:54 PM 42.1 °F 33.1 °F 33.1 °F 70% 29.78 in 10.0 mi East 20.7 mph 28.8 mph N/A   Overcast
9:54 PM 41.0 °F 31.6 °F 33.1 °F 73% 29.76 in 10.0 mi East 20.7 mph 34.5 mph N/A   Overcast
10:54 PM 41.0 °F 30.9 °F 34.0 °F 76% 29.73 in 10.0 mi East 24.2 mph 35.7 mph N/A   Overcast
11:33 PM 39.9 °F 31.4 °F 34.0 °F 79% 29.72 in 10.0 mi East 16.1 mph 31.1 mph N/A   Overcast
11:54 PM 39.9 °F 30.0 °F 35.1 °F 83% 29.74 in 10.0 mi ENE 21.9 mph 28.8 mph 0.00 in Rain Light Rain